Regional Weather Roundup
Issued by NWS

Home | Current Version | Previous Version | Graphics & Text | Print | Product List | Glossary On
Versions: 1 2 3 4 5 6 7 8 9 10 11 12 13 14 15 16 17 18 19 20 21 22 23 24 25 26 27
000
ASUS45 KBOI 222310
RWRID

IDAHO REGIONAL WEATHER ROUNDUP
NATIONAL WEATHER SERVICE BOISE ID
500 PM MDT MON AUG 22 2016

NOTE: "FAIR" INDICATES FEW OR NO CLOUDS BELOW 12000 FEET
WITH NO SIGNIFICANT WEATHER AND/OR OBSTRUCTIONS TO VISIBILITY

IDZ012-014-230000-
SOUTHWEST IDAHO


CITY           SKY/WX    TMP DP  RH WIND       PRES   REMARKS
BOISE          SUNNY     84  28  13 N9        29.90F
CALDWELL       SUNNY     85  38  18 N8        29.88F
MOUNTAIN HOME  PTSUNNY   86  24  10 N8G18     29.89F
$$

IDZ016-017-230000-
SOUTHCENTRAL IDAHO


CITY           SKY/WX    TMP DP  RH WIND       PRES   REMARKS
BURLEY         SUNNY     81  33  17 W12G20    29.95F
JEROME         SUNNY     82  27  13 W15       29.96F
TWIN FALLS     SUNNY     83  25  12 NW13      29.96F
$$

IDZ019>023-230000-
SOUTHEAST IDAHO


CITY           SKY/WX    TMP DP  RH WIND       PRES   REMARKS
IDAHO FALLS    CLOUDY    84  25  11 S26G36    29.90F
POCATELLO      CLOUDY    84  18   8 SW24G32   29.96F
REXBURG        CLOUDY    83  20   9 SW28G43   29.89S
$$

IDZ006-010-011-018-031-032-230000-
CENTRAL IDAHO MOUNTAINS


CITY           SKY/WX    TMP DP  RH WIND       PRES   REMARKS
MCCALL         SUNNY     74   5   7 W13G24    30.01S
HAILEY         MOSUNNY   79  19  11 W14G29    29.98R
STANLEY          N/A     73  13  10 N9        30.05S
SALMON         SUNNY     84  27  12 SW12G21   29.78S
CHALLIS        MOSUNNY   81  13   7 W15G22    29.89F
$$

IDZ002-004-006-007-026-230000-
NORTHERN IDAHO


CITY           SKY/WX    TMP DP  RH WIND       PRES   REMARKS
LEWISTON       CLOUDY    77  28  16 NW13G21   29.91F
LOWELL           N/A     80  37  21 VRB3      29.90R
COEUR D`ALENE  SUNNY     73  32  21 S12G18    29.92F
MULLAN PASS    PTSUNNY   56  32  40 CALM      30.04S
$$




USA.gov is the U.S. government's official web portal to all federal, state and local government web resources and services.